Location: Chiroubles
(46.1812°N, 4.6660°E)
Time: 06:28:23
(UTC+00:00)

Transit 4A - Pass Details

Date: 03 December 2020
Orbit: 864 x 980 km, 66.8° (Epoch: 25 January)

Event Time Altitude Azimuth Distance (km) Brightness Sun altitude
Rises 15:40:46 0° 324° (NW) 3,680 11.0 1.4°
Reaches altitude 10° 15:43:23 10° 321° (NW) 2,720 10.4 1.0°
Maximum altitude 15:49:38 61° 243° (WSW) 1,074 8.8 0.1°
Drops below altitude 10° 15:55:41 10° 165° (SSE) 2,636 10.5 -0.7°
Sets 15:58:12 0° 161° (SSE) 3,558 11.1 -1.1°
